Greeley, CO

3:30 AM MDT on April 25, 2017 (GMT -0600)
Greeley-Weld County

Weather History for KGXY - June, 2013

Change the Weather History Date:

Sunday, June 30, 2013

  Actual Average Record
Temperature  
Mean Temperature 71 °F -  
Max Temperature 82 °F - 98 °F (1990)
Min Temperature 60 °F - 48 °F (1974)
Degree Days  
Heating Degree Days 0    
Month to date heating degree days  
Cooling Degree Days 6    
Month to date cooling degree days  
Growing Degree Days 21 (Base 50)    
Moisture  
Dew Point 52 °F    
Average Humidity 52    
Maximum Humidity 68    
Minimum Humidity 35    
Precipitation  
Precipitation 0.00 in - 0.25 in (1979)
Sea Level Pressure  
Sea Level Pressure 30.21 in    
Wind  
Wind Speed 7 mph (East)    
Max Wind Speed 14 mph    
Max Gust Speed 20 mph    
Visibility 10 miles    
Events      
T = Trace of Precipitation, MM = Missing Value Source: NWS Daily Summary

Daily Weather History Graph

Daily Weather History Graph

Search for Another Location

Airport or City:

Trip Planner

Search our weather history database for the weather conditions in past years. The results will help you decide how hot, cold, wet, or windy it might be!

Date:

Astronomy

Jun. 30, 2013 Rise Set
Actual Time 5:31 AM MDT 8:32 PM MDT
Civil Twilight 4:58 AM MDT 9:05 PM MDT
Nautical Twilight 4:16 AM MDT 9:47 PM MDT
Astronomical Twilight 3:27 AM MDT 10:36 PM MDT
Moon 12:32 AM MDT (6/30) 1:49 PM MDT (6/30)
Length of Visible Light 16h 07m
Length of Day
15h 01m
Last Quarter, 45% of the Moon is Illuminated
Jun 30
Last Quarter
Jul 8
New
Jul 15
First Quarter
Jul 22
Full
Jul 29
Last Quarter

Hourly Weather History & Observations

Time (MDT) Temp. Heat Index Dew Point Humidity Pressure Visibility Wind Dir Wind Speed Gust Speed Precip Events Conditions
12:15 AM 66.2 °F - 53.6 °F 64% 30.21 in 10.0 mi East 6.9 mph - N/A   Scattered Clouds
12:35 AM 66.2 °F - 53.6 °F 64% 30.21 in 10.0 mi East 6.9 mph - N/A   Scattered Clouds
12:55 AM 66.2 °F - 51.8 °F 60% 30.22 in 9.0 mi NE 3.5 mph - N/A   Partly Cloudy
1:15 AM 64.4 °F - 51.8 °F 64% 30.22 in 10.0 mi NE 5.8 mph - N/A   Scattered Clouds
1:35 AM 64.4 °F - 51.8 °F 64% 30.23 in 10.0 mi NE 5.8 mph - N/A   Mostly Cloudy
1:55 AM 64.4 °F - 51.8 °F 64% 30.23 in 10.0 mi NNE 5.8 mph - N/A   Overcast
2:15 AM 64.4 °F - 51.8 °F 64% 30.23 in 10.0 mi North 5.8 mph - N/A   Scattered Clouds
2:35 AM 64.4 °F - 51.8 °F 64% 30.23 in 10.0 mi NNE 6.9 mph - N/A   Partly Cloudy
2:55 AM 64.4 °F - 50.0 °F 59% 30.23 in 7.0 mi North 4.6 mph - N/A   Clear
3:15 AM 62.6 °F - 51.8 °F 68% 30.23 in 10.0 mi NNE 4.6 mph - N/A   Clear
3:35 AM 64.4 °F - 50.0 °F 59% 30.23 in 10.0 mi NNE 8.1 mph - N/A   Scattered Clouds
3:55 AM 62.6 °F - 50.0 °F 63% 30.22 in 10.0 mi NE 9.2 mph - N/A   Mostly Cloudy
4:15 AM 62.6 °F - 50.0 °F 63% 30.22 in 10.0 mi NE 5.8 mph - N/A   Scattered Clouds
4:35 AM 62.6 °F - 50.0 °F 63% 30.22 in 10.0 mi NNE 8.1 mph - N/A   Clear
4:55 AM 62.6 °F - 50.0 °F 63% 30.22 in 10.0 mi NE 9.2 mph - N/A   Clear
5:15 AM 62.6 °F - 50.0 °F 63% 30.21 in 10.0 mi ENE 8.1 mph - N/A   Mostly Cloudy
5:35 AM 60.8 °F - 50.0 °F 68% 30.18 in 10.0 mi ESE 11.5 mph - N/A   Overcast
5:55 AM 62.6 °F - 50.0 °F 63% 30.19 in 10.0 mi East 8.1 mph - N/A   Scattered Clouds
6:15 AM 62.6 °F - 50.0 °F 63% 30.22 in 10.0 mi North 3.5 mph - N/A   Clear
6:35 AM 62.6 °F - 51.8 °F 68% 30.21 in 10.0 mi ENE 6.9 mph - N/A   Clear
6:55 AM 62.6 °F - 50.0 °F 63% 30.21 in 10.0 mi NNE 3.5 mph - N/A   Clear
7:15 AM 62.6 °F - 50.0 °F 63% 30.22 in 10.0 mi NNE 3.5 mph - N/A   Clear
7:35 AM 64.4 °F - 51.8 °F 64% 30.23 in 10.0 mi NNE 4.6 mph - N/A   Clear
7:55 AM 64.4 °F - 51.8 °F 64% 30.22 in 10.0 mi ENE 6.9 mph - N/A   Clear
8:15 AM 66.2 °F - 51.8 °F 60% 30.23 in 10.0 mi East 6.9 mph - N/A   Clear
8:35 AM 68.0 °F - 51.8 °F 56% 30.22 in 10.0 mi East 9.2 mph - N/A   Clear
8:55 AM 68.0 °F - 51.8 °F 56% 30.22 in 10.0 mi East 9.2 mph - N/A   Clear
9:15 AM 68.0 °F - 53.6 °F 60% 30.22 in 10.0 mi ESE 8.1 mph - N/A   Clear
9:35 AM 68.0 °F - 51.8 °F 56% 30.23 in 9.0 mi ESE 4.6 mph - N/A   Clear
9:55 AM 69.8 °F - 51.8 °F 53% 30.23 in 10.0 mi East 8.1 mph - N/A   Partly Cloudy
10:15 AM 69.8 °F - 51.8 °F 53% 30.23 in 10.0 mi East 5.8 mph - N/A   Partly Cloudy
10:35 AM 73.4 °F - 53.6 °F 50% 30.23 in 10.0 mi ESE 9.2 mph - N/A   Clear
10:55 AM 71.6 °F - 53.6 °F 53% 30.22 in 10.0 mi ESE 8.1 mph - N/A   Clear
11:15 AM 75.2 °F - 53.6 °F 47% 30.22 in 10.0 mi East 13.8 mph - N/A   Clear
11:35 AM 75.2 °F - 53.6 °F 47% 30.22 in 10.0 mi East 10.4 mph 17.3 mph N/A   Clear
11:55 AM 75.2 °F - 53.6 °F 47% 30.22 in 10.0 mi ESE 11.5 mph - N/A   Clear
12:15 PM 75.2 °F - 53.6 °F 47% 30.21 in 10.0 mi ESE 11.5 mph 17.3 mph N/A   Partly Cloudy
12:35 PM 78.8 °F - 51.8 °F 39% 30.21 in 10.0 mi North - - N/A   Clear
12:55 PM 80.6 °F 80.3 °F 53.6 °F 39% 30.22 in 10.0 mi SE 10.4 mph 17.3 mph N/A   Clear
1:15 PM 80.6 °F 80.3 °F 53.6 °F 39% 30.21 in 10.0 mi ESE 6.9 mph 16.1 mph N/A   Clear
1:35 PM 80.6 °F 80.3 °F 53.6 °F 39% 30.22 in 10.0 mi ESE 9.2 mph 17.3 mph N/A   Scattered Clouds
1:55 PM 78.8 °F - 53.6 °F 42% 30.21 in 10.0 mi SE 5.8 mph - N/A   Mostly Cloudy
2:15 PM 80.6 °F 80.3 °F 53.6 °F 39% 30.20 in 10.0 mi East 8.1 mph 19.6 mph N/A   Partly Cloudy
2:35 PM 80.6 °F 80.3 °F 53.6 °F 39% 30.20 in 10.0 mi East 11.5 mph - N/A   Clear
2:55 PM 80.6 °F 80.3 °F 53.6 °F 39% 30.20 in 10.0 mi SSE 6.9 mph - N/A   Clear
3:15 PM 80.6 °F 80.3 °F 53.6 °F 39% 30.19 in 10.0 mi East 10.4 mph - N/A   Clear
3:35 PM 80.6 °F 80.3 °F 53.6 °F 39% 30.19 in 10.0 mi ESE 5.8 mph - N/A   Clear
3:55 PM 82.4 °F 81.4 °F 53.6 °F 37% 30.19 in 10.0 mi ESE 11.5 mph 17.3 mph N/A   Clear
4:15 PM 82.4 °F - 51.8 °F 35% 30.19 in 10.0 mi ENE 11.5 mph 16.1 mph N/A   Clear
4:35 PM 82.4 °F - 51.8 °F 35% 30.19 in 10.0 mi East 8.1 mph - N/A   Clear
4:55 PM 82.4 °F - 51.8 °F 35% 30.18 in 10.0 mi East 9.2 mph - N/A   Clear
5:15 PM 82.4 °F - 51.8 °F 35% 30.18 in 10.0 mi ESE 8.1 mph 16.1 mph N/A   Clear
5:35 PM 82.4 °F - 51.8 °F 35% 30.18 in 10.0 mi SSE 8.1 mph 16.1 mph N/A   Clear
5:55 PM 80.6 °F - 51.8 °F 37% 30.18 in 10.0 mi ESE 11.5 mph - N/A   Clear
6:15 PM 77.0 °F - 51.8 °F 41% 30.18 in 10.0 mi ESE 9.2 mph - N/A   Partly Cloudy
6:35 PM 77.0 °F - 51.8 °F 41% 30.18 in 10.0 mi ESE 9.2 mph - N/A   Partly Cloudy
6:55 PM 75.2 °F - 51.8 °F 44% 30.19 in 10.0 mi ESE 9.2 mph - N/A   Partly Cloudy
7:15 PM 73.4 °F - 51.8 °F 47% 30.20 in 10.0 mi ESE 9.2 mph - N/A   Clear
7:35 PM 73.4 °F - 51.8 °F 47% 30.20 in 10.0 mi ESE 8.1 mph - N/A   Clear
7:55 PM 73.4 °F - 51.8 °F 47% 30.20 in 10.0 mi ESE 10.4 mph - N/A   Partly Cloudy
8:15 PM 73.4 °F - 51.8 °F 47% 30.20 in 10.0 mi East 11.5 mph - N/A   Scattered Clouds
8:35 PM 71.6 °F - 51.8 °F 50% 30.20 in 10.0 mi East 9.2 mph - N/A   Overcast
8:55 PM 69.8 °F - 51.8 °F 53% 30.21 in 8.0 mi East 8.1 mph - N/A   Overcast
9:15 PM 68.0 °F - 50.0 °F 52% 30.23 in 10.0 mi East 8.1 mph - N/A   Overcast
9:35 PM 68.0 °F - 51.8 °F 56% 30.23 in 9.0 mi ESE 8.1 mph - N/A   Overcast
9:55 PM 69.8 °F - 50.0 °F 49% 30.23 in 10.0 mi SE 9.2 mph - N/A   Overcast
10:15 PM 68.0 °F - 50.0 °F 52% 30.23 in 10.0 mi SE 6.9 mph - N/A   Overcast
10:35 PM 68.0 °F - 48.2 °F 49% 30.24 in 10.0 mi SE 9.2 mph - N/A   Overcast
10:55 PM 66.2 °F - 48.2 °F 52% 30.24 in 10.0 mi ESE 6.9 mph - N/A   Overcast
11:15 PM 64.4 °F - 48.2 °F 56% 30.24 in 10.0 mi ESE 5.8 mph - N/A   Overcast
11:35 PM 64.4 °F - 48.2 °F 56% 30.23 in 10.0 mi SE 6.9 mph - N/A   Overcast
11:55 PM 60.8 °F - 48.2 °F 63% 30.23 in 10.0 mi ESE 4.6 mph - N/A   Overcast